Starlink 32837

operational
NORAD ID: 62812 Int'l Des: 2025-018 Owner: SPXS Country: US Constellation: starlink
LEOCIRCULAR

About Starlink 32837

Description loading...

Live Position

Loading 3D Globe...

Upcoming Passes

Altitude History

Altitude vs Time

uPlot chart will show altitude changes over time

Two-Line Element Set

1 62812U 25018G 25303.27626660 .00041034 00000-0 13899-2 0 9997
2 62812 53.1580 195.2172 0001254 104.6704 255.4436 15.30201499 43217
Epoch: Oct 30, 2025 • Age: 17 hours

Current Status

Altitude 477.4 km
Velocity 7.63 km/s
Sub-Earth Point 36.42°N, 175.58°W
Launch Date Jan 24, 2025
Age 0.7 years
Type internet

Technical Details

Classification Payload
Mass 730.00 kg
Dry Mass 700.00 kg
Total Mass 730.00 kg
Length 0.30 m
Diameter 4.10 m
Span 29.00 m
Shape Box + pan
Manufacturer SPXS
Bus Type Starlink V2M
Phase Status In Orbit
Owner/State SPXS/US

Large Constellations

Loading constellations...